When you browse on this site, cookies collect data to enhance your experience and personalize the content and advertising you see.
Visit our Privacy Policy to learn more. By continuing to use the site, you agree to this use of cookies and data.

Hourly Weather Morpeth

Today, 11 August, Tuesday

Time Temperature Precipitation Wind Pressure Humidity
00:00 +15°C° 0 mm 2 mps 759 mmHg 97%
01:00 +16°C° 0 mm 2 mps 759 mmHg 97%
02:00 +16°C° 0 mm 2 mps 758 mmHg 97%
03:00 +16°C° 0 mm 1 mps 758 mmHg 97%
04:00 +17°C° 0 mm 2 mps 758 mmHg 96%
05:00 +17°C° 0 mm 2 mps 758 mmHg 95%
06:00 +17°C° 0 mm 2 mps 758 mmHg 95%
07:00 +18°C° 0 mm 2 mps 758 mmHg 92%
08:00 +19°C° 0 mm 2 mps 758 mmHg 89%
09:00 +20°C° 0 mm 2 mps 758 mmHg 86%
10:00 +21°C° 0 mm 2 mps 758 mmHg 81%
11:00 +24°C° 0 mm 2 mps 758 mmHg 76%
12:00 +25°C° 0 mm 2 mps 758 mmHg 70%
13:00 +25°C° 0 mm 2 mps 758 mmHg 71%
14:00 +25°C° 0 mm 3 mps 757 mmHg 72%
15:00 +25°C° 0 mm 3 mps 757 mmHg 74%
16:00 +25°C° 0 mm 3 mps 757 mmHg 76%
17:00 +24°C° 0 mm 3 mps 757 mmHg 79%
18:00 +22°C° 0 mm 3 mps 757 mmHg 82%
19:00 +21°C° 0 mm 2 mps 757 mmHg 85%
20:00 +19°C° 0 mm 2 mps 757 mmHg 88%
21:00 +18°C° 0 mm 2 mps 757 mmHg 90%
22:00 +18°C° 0 mm 2 mps 757 mmHg 92%
23:00 +18°C° 0 mm 2 mps 757 mmHg 93%

Tomorrow, 12 August, Wednesday

Time Temperature Precipitation Wind Pressure Humidity
00:00 +19°C° 0 mm 1 mps 756 mmHg 94%
01:00 +19°C° 0 mm 1 mps 756 mmHg 95%
02:00 +18°C° 0 mm 1 mps 756 mmHg 96%
03:00 +18°C° 0 mm 1 mps 755 mmHg 96%
04:00 +19°C° 0 mm 1 mps 755 mmHg 96%
05:00 +19°C° 0 mm 1 mps 755 mmHg 95%
06:00 +19°C° 0 mm 1 mps 755 mmHg 95%
07:00 +21°C° 0 mm 1 mps 755 mmHg 89%
08:00 +22°C° 0 mm 1 mps 755 mmHg 84%
09:00 +24°C° 0 mm 1 mps 755 mmHg 79%
10:00 +25°C° 0 mm 1 mps 755 mmHg 75%
11:00 +26°C° 0 mm 1 mps 755 mmHg 71%
12:00 +27°C° 0 mm 2 mps 755 mmHg 68%
13:00 +27°C° 0.1 mm 2 mps 755 mmHg 69%
14:00 +27°C° 0.1 mm 2 mps 755 mmHg 71%
15:00 +26°C° 0.1 mm 3 mps 755 mmHg 73%
16:00 +25°C° 0.1 mm 3 mps 755 mmHg 77%
17:00 +24°C° 0.1 mm 3 mps 755 mmHg 81%
18:00 +23°C° 0.1 mm 2 mps 755 mmHg 85%
19:00 +21°C° 0 mm 2 mps 755 mmHg 88%
20:00 +20°C° 0 mm 2 mps 755 mmHg 92%
21:00 +18°C° 0 mm 2 mps 756 mmHg 95%
22:00 +18°C° 0 mm 2 mps 756 mmHg 96%
23:00 +18°C° 0 mm 2 mps 756 mmHg 96%

Day after tomorrow, 13 August, Thursday

Time Temperature Precipitation Wind Pressure Humidity
00:00 +18°C° 0 mm 2 mps 756 mmHg 97%
01:00 +18°C° 0 mm 2 mps 756 mmHg 96%
02:00 +18°C° 0 mm 3 mps 755 mmHg 96%
03:00 +18°C° 0 mm 3 mps 755 mmHg 96%
04:00 +18°C° 0 mm 3 mps 755 mmHg 96%
05:00 +18°C° 0 mm 4 mps 755 mmHg 95%
06:00 +18°C° 0 mm 4 mps 755 mmHg 95%
07:00 +18°C° 0 mm 4 mps 756 mmHg 93%
08:00 +19°C° 0 mm 4 mps 756 mmHg 92%
09:00 +19°C° 0 mm 5 mps 756 mmHg 90%
10:00 +19°C° 0 mm 5 mps 756 mmHg 89%
11:00 +19°C° 0 mm 5 mps 756 mmHg 88%
12:00 +19°C° 0 mm 5 mps 756 mmHg 87%
13:00 +19°C° 0 mm 5 mps 756 mmHg 87%
14:00 +19°C° 0 mm 5 mps 756 mmHg 87%
15:00 +19°C° 0 mm 5 mps 756 mmHg 87%
16:00 +19°C° 0 mm 5 mps 756 mmHg 88%
17:00 +19°C° 0 mm 5 mps 756 mmHg 89%
18:00 +17°C° 0 mm 5 mps 756 mmHg 90%
19:00 +17°C° 0 mm 5 mps 756 mmHg 91%
20:00 +17°C° 0 mm 5 mps 756 mmHg 92%
21:00 +16°C° 0 mm 5 mps 756 mmHg 93%
22:00 +16°C° 0 mm 5 mps 756 mmHg 94%
23:00 +16°C° 0 mm 5 mps 756 mmHg 94%

14 August, Friday

Time Temperature Precipitation Wind Pressure Humidity
00:00 +15°C° 0 mm 5 mps 756 mmHg 95%
01:00 +15°C° 0 mm 5 mps 756 mmHg 94%
02:00 +15°C° 0 mm 5 mps 756 mmHg 93%
03:00 +15°C° 0 mm 5 mps 756 mmHg 92%
04:00 +15°C° 0 mm 5 mps 756 mmHg 92%
05:00 +15°C° 0 mm 5 mps 756 mmHg 91%
06:00 +15°C° 0 mm 5 mps 756 mmHg 91%
07:00 +16°C° 0 mm 5 mps 756 mmHg 88%
08:00 +16°C° 0 mm 5 mps 756 mmHg 86%
09:00 +17°C° 0 mm 5 mps 757 mmHg 84%
10:00 +17°C° 0 mm 5 mps 757 mmHg 82%
11:00 +19°C° 0 mm 5 mps 757 mmHg 80%
12:00 +19°C° 0 mm 5 mps 757 mmHg 78%
13:00 +20°C° 0 mm 5 mps 757 mmHg 78%
14:00 +20°C° 0 mm 5 mps 757 mmHg 78%
15:00 +20°C° 0 mm 5 mps 757 mmHg 78%
16:00 +19°C° 0 mm 5 mps 757 mmHg 80%
17:00 +18°C° 0 mm 4 mps 757 mmHg 83%
18:00 +18°C° 0 mm 4 mps 757 mmHg 85%
19:00 +17°C° 0 mm 4 mps 757 mmHg 89%
20:00 +16°C° 0 mm 3 mps 758 mmHg 92%
21:00 +14°C° 0 mm 3 mps 758 mmHg 96%
22:00 +15°C° 0 mm 2 mps 758 mmHg 96%
23:00 +15°C° 0 mm 2 mps 758 mmHg 96%

15 August, Saturday

Time Temperature Precipitation Wind Pressure Humidity
00:00 +15°C° 0 mm 2 mps 758 mmHg 96%
01:00 +15°C° 0 mm 2 mps 758 mmHg 96%
02:00 +15°C° 0 mm 2 mps 758 mmHg 96%
03:00 +15°C° 0 mm 2 mps 758 mmHg 96%
04:00 +15°C° 0 mm 2 mps 758 mmHg 95%
05:00 +15°C° 0 mm 2 mps 758 mmHg 95%
06:00 +15°C° 0 mm 2 mps 758 mmHg 95%
07:00 +16°C° 0 mm 3 mps 758 mmHg 90%
08:00 +17°C° 0 mm 3 mps 758 mmHg 86%
09:00 +18°C° 0 mm 3 mps 758 mmHg 82%
10:00 +19°C° 0 mm 3 mps 758 mmHg 78%
11:00 +20°C° 0 mm 4 mps 758 mmHg 74%
12:00 +21°C° 0 mm 4 mps 758 mmHg 70%
13:00 +21°C° 0 mm 4 mps 758 mmHg 71%
14:00 +21°C° 0 mm 4 mps 757 mmHg 73%
15:00 +20°C° 0 mm 5 mps 757 mmHg 75%
16:00 +19°C° 0 mm 4 mps 757 mmHg 79%
17:00 +18°C° 0 mm 4 mps 757 mmHg 83%
18:00 +17°C° 0 mm 4 mps 757 mmHg 88%
19:00 +17°C° 0.1 mm 4 mps 757 mmHg 90%
20:00 +17°C° 0.1 mm 3 mps 757 mmHg 91%
21:00 +17°C° 0.1 mm 3 mps 757 mmHg 93%
22:00 +17°C° 0.6 mm 3 mps 756 mmHg 94%
23:00 +17°C° 0.6 mm 3 mps 756 mmHg 95%

16 August, Sunday

Time Temperature Precipitation Wind Pressure Humidity
00:00 +17°C° 0.6 mm 3 mps 756 mmHg 97%
01:00 +17°C° 0.1 mm 3 mps 756 mmHg 97%
02:00 +17°C° 0.1 mm 3 mps 755 mmHg 97%
03:00 +17°C° 0.1 mm 3 mps 755 mmHg 97%
04:00 +17°C° 0 mm 2 mps 755 mmHg 97%
05:00 +17°C° 0 mm 2 mps 755 mmHg 96%
06:00 +17°C° 0 mm 2 mps 755 mmHg 96%
07:00 +17°C° 0 mm 2 mps 755 mmHg 94%
08:00 +18°C° 0 mm 2 mps 755 mmHg 92%
09:00 +19°C° 0 mm 2 mps 755 mmHg 90%
10:00 +19°C° 0 mm 2 mps 755 mmHg 90%
11:00 +19°C° 0 mm 2 mps 754 mmHg 89%
12:00 +20°C° 0 mm 2 mps 754 mmHg 89%
13:00 +20°C° 0 mm 2 mps 754 mmHg 88%
14:00 +20°C° 0 mm 2 mps 754 mmHg 88%
15:00 +20°C° 0 mm 3 mps 753 mmHg 87%
16:00 +20°C° 0 mm 3 mps 753 mmHg 88%
17:00 +20°C° 0 mm 3 mps 753 mmHg 88%
18:00 +20°C° 0 mm 3 mps 753 mmHg 89%
19:00 +19°C° 1.2 mm 3 mps 753 mmHg 90%
20:00 +19°C° 1.2 mm 3 mps 753 mmHg 92%
21:00 +18°C° 1.2 mm 3 mps 753 mmHg 94%
22:00 +18°C° 0.8 mm 3 mps 753 mmHg 94%
23:00 +17°C° 0.8 mm 3 mps 753 mmHg 95%
Show more